Location: Wapato
(46.4478°N, 120.4212°W)
Time: 08:57:37
(UTC+00:00)

Injun/Solrad 3 - Pass Details

Date: 12 May 2026
Orbit: 867 x 989 km, 66.8° (Epoch: 10 June)

Event Time Altitude Azimuth Distance (km) Brightness Sun altitude
Rises 08:26:29 0° 327° (NNW) 3,672 11.7 -25.1°
Reaches altitude 10° 08:29:05 10° 331° (NNW) 2,734 11.0 -25.0°
Maximum altitude 08:35:27 62° 52° (NE) 1,102 8.4 -24.8°
Enters shadow 08:39:22 25° 126° (SE) 1,898 9.3 -24.7°
Drops below altitude 10° 08:41:50 10° 133° (SE) 2,742 - -24.6°
Sets 08:44:26 0° 137° (SE) 3,684 - -24.5°
